Regional Weather Roundup
Issued by NWS

Home | Current Version | Previous Version | Graphics & Text | Print | Product List | Glossary On
Versions: 1 2 3 4 5 6 7 8 9 10 11 12 13 14 15 16 17 18 19 20 21 22 23 24 25 26 27 28 29 30 31 32 33 34 35 36 37 38 39 40 41 42 43 44 45 46 47 48 49 50
000
ASUS44 KMEG 201210
RWRTN
TENNESSEE HOURLY STATE WEATHER ROUNDUP
NATIONAL WEATHER SERVICE MEMPHIS TN
700 AM CDT FRI APR 20 2018

TNZ002-004-019-021-049-052-054-088>092-201300-
WEST TENNESSEE

CITY           SKY/WX    TMP DP  RH WIND       PRES   REMARKS
MEMPHIS INTL   FAIR      41  35  79 NE8       30.37F
NWS MEMPHIS      N/A     38 N/A N/A MISG        N/A
JACKSON        FAIR      33  32  96 CALM      30.41R
DYERSBURG      FAIR      40  33  76 E5        30.42R
SOMERVILLE     CLEAR     34  32  93 CALM      30.38R
COVINGTON      CLEAR     39  36  87 N5        30.41R
UNION CITY     CLEAR     37  32  81 N3        30.42R
BOLIVAR        CLEAR     34  34 100 CALM      30.39R
PARIS          CLEAR     37  30  75 NE5       30.41R WCI  34
HUNTINGDON     CLEAR     39  32  75 CALM      30.40R
LEXINGTON      CLEAR     32  32 100 CALM      30.39R FOG
SELMER         CLEAR     34  32  93 N3        30.38R
SAVANNAH       CLEAR     32  32 100 CALM      30.39R
$$

TNZ008-025-027-028-033-062-065-066-201300-
NORTH MIDDLE TENNESSEE

CITY           SKY/WX    TMP DP  RH WIND       PRES   REMARKS
NASHVILLE      FAIR      39  34  82 NE5       30.40R
PORTLAND       CLEAR     36  32  87 CALM      30.40R
CLARKSVILLE    FAIR      37  27  67 NE5       30.41R WCI  33
SMYRNA         FAIR      31  30  96 CALM      30.40R
COOKEVILLE     SUNNY     32  30  93 CALM      30.37R
LIVINGSTON     SUNNY     37  30  75 NE3       30.36R
GALLATIN       CLEAR     34  32  93 CALM      30.43R
CROSSVILLE     FAIR      35  29  78 E6        30.35R WCI  30
ROCKWOOD       SUNNY     36  30  80 NE3       30.35R
$$

TNZ061-075-076-078-094-096-097-201300-
SOUTH MIDDLE TENNESSEE

CITY           SKY/WX    TMP DP  RH WIND       PRES   REMARKS
LEWISBURG      SUNNY     32  30  93 CALM      30.37R
FAYETTEVILLE   CLEAR     39  32  75 N6        30.34R WCI  35
TULLAHOMA      CLEAR     39  30  70 NE8       30.34R WCI  34
WINCHESTER     SUNNY     39  30  70 NE5       30.34R
MCMINNVILLE    SUNNY     37  32  81 NE6       30.37R WCI  33
COLUMBIA       CLEAR     34  34 100 CALM      30.37R
SHELBYVILLE    CLEAR     32  32 100 CALM      30.36R
$$

TNZ017-018-042-046-047-201300-
NORTHEAST TENNESSEE

CITY           SKY/WX    TMP DP  RH WIND       PRES   REMARKS
TRI CITIES     FAIR      33  31  92 CALM      30.39R
ELIZABETHTON   FAIR      32  28  86 CALM      30.39R
$$

TNZ012-013-036-069-073-074-201300-
CENTRAL EAST TENNESSEE

CITY           SKY/WX    TMP DP  RH WIND       PRES   REMARKS
KNOXVILLE      FAIR      39  31  72 NE10      30.36R WCI  32
OAK RIDGE      FAIR      36  34  92 VRB3      30.40R
DOWNTOWN KNOXV SUNNY     36  34  93 SE6       30.39S WCI  31
GATLINBURG     SUNNY     32  30  93 CALM      30.38R
MORRISTOWN     SUNNY     36  30  80 CALM      30.38R
JACKSBORO      SUNNY     32  32 100 CALM      30.42R
$$

TNZ083-085-099-201300-
SOUTHEAST TENNESSEE

CITY           SKY/WX    TMP DP  RH WIND       PRES   REMARKS
CHATTANOOGA    FAIR      44  31  60 N9        30.36R
DAYTON         SUNNY     39  36  87 N5        30.37R
$$

SKY/WX REPORTED AS FAIR MEANS FEW OR NO CLOUDS BELOW
12 THOUSAND FEET.





USA.gov is the U.S. government's official web portal to all federal, state and local government web resources and services.